Wetbulb
75.69 74.28 72.99 70.58 70.33 70.37 70.09 70.50 70.99 71.12 71.44 71.59 71.74 71.47 70.95 71.12 71.06 71.07 70.93 70.56 69.64 68.70 69.28 68.63 69.02 69.17 68.07 67.09 66.75 67.66 70.74 69.68
75.12 74.74 73.18 73.20 73.80 69.61 69.52 69.80 69.78 70.12 70.66 70.55 70.23 70.16 70.52 70.39 70.23 70.42 70.41 69.60 68.78 68.34 68.90 68.56 68.63 67.78 66.87 66.29 66.08 67.04 69.61 69.91
74.75 74.68 74.01 72.82 72.89 72.72 70.40 69.97 69.78 69.49 70.52 69.98 69.76 73.10 73.20 72.18 70.17 69.34 69.21 68.21 67.38 67.99 68.36 67.37 66.84 66.77 66.28 65.82 66.04 69.80 68.54 69.55
73.87 74.30 74.10 73.21 72.14 72.53 73.33 73.14 73.06 72.79 72.86 73.25 73.09 72.74 72.67 71.46 70.12 68.36 67.68 66.66 66.32 66.95 67.49 66.75 66.88 68.35 68.51 66.29 69.46 68.67 68.61 68.43
73.06 73.72 74.16 73.77 72.32 71.71 72.10 72.52 72.33 72.94 72.89 73.04 73.03 72.25 73.08 72.14 71.37 69.98 70.59 67.01 66.84 65.97 67.90 68.32 68.27 68.62 68.55 68.83 68.85 68.11 68.90 67.71
73.24 73.25 73.26 73.78 73.36 72.55 71.67 71.17 71.45 71.44 72.83 73.59 73.44 72.39 72.56 72.11 71.38 70.86 70.19 69.02 67.13 64.93 65.46 67.45 68.15 68.06 68.74 68.48 67.74 68.18 67.98 67.14
72.09 73.28 72.77 72.89 72.28 73.23 72.80 71.65 72.33 71.28 70.86 72.24 72.96 72.94 70.97 70.20 69.89 70.86 70.25 69.12 67.30 64.82 64.74 65.40 66.30 66.27 67.18 66.94 66.64 67.72 67.46 66.51
70.88 72.47 72.99 71.77 72.15 72.31 72.09 72.00 71.98 71.30 70.73 70.83 71.60 71.63 69.51 68.54 68.63 67.63 68.40 68.17 67.22 65.80 65.73 65.02 63.97 63.76 64.41 65.79 66.38 66.97 66.70 65.74
66.44 66.74 72.77 71.32 70.87 71.75 71.79 72.01 71.46 71.39 71.45 71.10 70.56 69.75 68.69 68.32 67.43 65.89 66.32 66.24 66.30 65.02 63.20 62.64 61.77 62.36 62.29 63.06 63.83 65.16 65.13 64.84
66.84 62.85 67.10 70.65 69.91 70.84 70.28 70.33 71.05 70.98 71.12 72.55 70.86 68.70 68.29 67.69 67.05 65.51 63.24 62.13 61.59 60.02 59.83 59.89 59.90 61.45 60.85 61.32 61.23 61.98 63.48 63.35
66.03 67.54 67.87 68.85 69.77 69.30 69.37 69.77 69.15 69.64 70.15 70.29 70.42 69.37 68.16 67.76 66.77 64.33 60.85 59.95 59.80 60.09 59.04 58.85 58.17 58.33 55.98 55.68 57.18 58.35 60.51 61.49
62.23 62.56 65.23 66.34 68.44 68.91 68.48 67.88 67.27 68.12 68.21 68.03 68.35 69.03 67.69 68.77 66.44 62.26 59.76 59.10 58.62 60.08 58.57 59.07 57.28 56.97 53.86 52.12 54.31 57.80 59.03 59.46
58.10 60.59 60.01 61.48 62.77 61.05 64.69 64.83 66.16 66.70 66.88 66.32 66.39 67.65 67.67 66.53 64.72 61.65 59.26 59.26 58.53 59.67 58.37 56.63 56.10 57.17 50.34 47.54 47.43 47.96 53.06 58.52
54.39 55.25 58.71 60.35 60.46 60.47 60.07 59.27 60.01 60.58 62.00 64.28 65.51 65.03 65.24 64.00 62.59 60.73 59.00 58.12 57.71 58.21 57.94 55.68 53.78 56.00 52.73 50.51 45.70 46.22 46.48 47.87
51.67 52.45 54.38 55.65 57.05 60.12 59.45 58.29 57.91 57.13 57.76 58.72 60.91 62.08 63.60 63.55 62.20 60.60 58.82 58.43 56.98 57.75 56.99 56.37 51.94 54.26 55.51 53.62 43.46 45.29 44.91 45.22
52.54 52.75 52.40 52.52 54.75 55.00 56.04 57.46 56.14 57.18 57.54 58.15 59.68 60.91 61.10 61.22 61.76 60.24 59.22 58.56 57.55 56.72 57.62 56.11 54.12 51.66 54.59 50.60 51.91 47.24 45.49 40.10
51.58 52.36 52.78 53.07 53.23 53.53 53.24 54.16 57.27 58.81 59.05 57.94 58.33 58.84 59.29 61.16 59.89 59.39 59.04 58.04 57.84 57.30 56.93 57.09 55.40 55.48 52.57 52.35 50.53 48.35 48.29 43.71
50.48 50.33 50.33 51.78 52.23 52.76 52.85 53.17 54.04 55.01 55.84 56.52 57.43 57.83 58.37 58.46 55.97 55.96 56.32 57.60 57.68 56.66 56.71 57.04 53.82 54.28 54.75 53.11 51.04 50.35 46.90 45.18
49.09 49.48 49.47 50.72 51.07 52.09 52.45 52.76 54.06 53.72 53.68 54.94 55.34 56.11 56.87 56.74 57.15 57.82 58.23 57.56 57.64 56.78 55.28 54.70 55.21 53.17 52.07 52.05 52.65 53.77 53.09 49.03
48.38 48.52 48.99 50.00 50.29 51.11 52.43 52.61 53.48 54.03 54.30 53.62 53.58 54.18 55.77 57.71 57.99 57.38 57.60 57.17 56.56 55.61 55.49 54.58 54.39 53.06 53.28 52.77 52.19 54.77 51.66 50.03
MSLP
1009.31 1010.12 1010.73 1011.22 1011.37 1011.61 1011.81 1012.10 1012.43 1012.90 1013.27 1013.53 1013.86 1014.20 1014.54 1014.70 1015.01 1015.36 1015.51 1015.54 1015.87 1016.32 1016.60 1017.12 1017.53 1017.84 1018.34 1018.59 1018.55 1018.21 1017.57 1018.39
1009.39 1009.83 1010.47 1010.85 1011.18 1011.87 1012.07 1012.27 1012.43 1012.68 1012.98 1013.32 1013.68 1014.16 1014.43 1014.58 1014.92 1015.26 1015.60 1015.84 1016.06 1016.37 1016.65 1017.18 1017.78 1018.00 1018.36 1018.68 1018.86 1018.71 1017.76 1018.24
1009.20 1009.37 1009.89 1010.54 1010.91 1011.11 1011.88 1012.18 1012.50 1012.80 1013.00 1013.34 1013.69 1013.57 1014.07 1014.74 1015.03 1015.20 1015.57 1015.80 1016.24 1016.65 1016.89 1017.23 1017.54 1018.39 1018.58 1018.65 1018.93 1018.08 1018.37 1017.72
1008.43 1008.81 1009.22 1010.12 1010.59 1010.98 1011.35 1011.55 1011.97 1012.21 1012.42 1012.75 1013.27 1013.19 1013.61 1013.97 1014.48 1015.13 1015.45 1015.76 1016.37 1016.64 1016.87 1017.39 1017.87 1018.09 1018.71 1018.82 1018.20 1018.08 1018.36 1017.72
1008.35 1008.91 1009.13 1009.63 1010.31 1010.70 1010.99 1011.25 1011.51 1011.40 1011.73 1011.99 1012.52 1012.64 1012.99 1013.61 1013.96 1014.77 1015.39 1016.16 1016.15 1016.62 1016.94 1017.16 1017.28 1017.45 1017.81 1018.12 1017.69 1018.29 1017.67 1017.95
1007.60 1008.35 1008.91 1009.17 1009.25 1009.93 1010.36 1010.87 1011.04 1011.23 1011.01 1011.51 1011.88 1012.36 1012.80 1013.17 1013.43 1013.70 1014.24 1014.98 1015.61 1016.07 1016.36 1016.46 1017.08 1017.25 1017.55 1017.80 1018.02 1018.06 1017.55 1017.94
1007.60 1007.88 1008.41 1008.69 1009.03 1008.83 1009.21 1010.05 1010.34 1010.59 1011.02 1011.04 1011.46 1011.62 1012.25 1012.85 1013.27 1013.38 1013.74 1014.44 1015.08 1015.84 1016.02 1016.44 1017.01 1017.56 1017.92 1018.22 1018.06 1017.80 1017.81 1017.95
1007.51 1007.68 1007.98 1008.62 1008.55 1008.67 1008.73 1009.16 1009.32 1009.95 1010.34 1010.71 1010.96 1011.38 1011.99 1012.44 1013.03 1013.48 1013.91 1014.48 1015.27 1015.82 1016.24 1016.65 1017.48 1017.81 1018.15 1018.41 1018.45 1018.09 1018.24 1018.28
1008.27 1008.10 1007.66 1008.14 1008.67 1008.56 1008.68 1008.58 1009.04 1009.38 1009.65 1010.20 1010.47 1010.96 1011.37 1011.88 1012.42 1013.09 1013.58 1014.26 1015.00 1015.90 1016.51 1017.12 1017.70 1017.95 1018.09 1018.47 1018.69 1018.51 1018.60 1018.60
1008.25 1008.13 1007.63 1007.60 1008.13 1008.26 1008.41 1008.37 1008.71 1008.93 1009.16 1009.47 1009.86 1010.27 1010.72 1011.23 1012.02 1012.58 1013.25 1014.27 1014.89 1015.75 1016.87 1016.00 1017.68 1018.28 1018.77 1018.80 1019.15 1019.01 1018.92 1019.07
1008.47 1008.11 1007.85 1007.85 1008.01 1008.40 1008.45 1008.43 1008.54 1008.43 1008.71 1009.09 1009.39 1009.56 1009.97 1010.48 1011.22 1011.97 1012.79 1013.67 1014.40 1014.59 1014.93 1015.58 1017.34 1017.97 1018.57 1019.05 1019.20 1019.32 1019.39 1019.30
1009.43 1009.24 1009.08 1008.67 1008.29 1008.35 1008.55 1008.60 1008.55 1008.46 1008.29 1008.57 1008.88 1009.16 1009.47 1009.78 1010.58 1011.17 1012.06 1012.70 1013.59 1014.29 1014.66 1015.55 1016.62 1017.47 1018.55 1018.54 1019.61 1019.59 1019.45 1019.58
1010.03 1009.55 1009.57 1009.58 1009.24 1008.88 1008.72 1008.39 1008.09 1008.05 1008.07 1008.04 1008.28 1008.54 1008.79 1009.35 1009.92 1010.51 1011.47 1012.02 1012.52 1013.26 1014.20 1014.90 1016.12 1017.00 1018.17 1019.65 1020.18 1020.15 1019.98 1019.94
1011.16 1010.90 1010.62 1010.16 1010.24 1010.24 1009.88 1009.55 1009.08 1008.94 1008.13 1007.75 1007.32 1007.81 1008.41 1008.85 1009.40 1009.90 1010.35 1011.21 1011.88 1012.49 1013.16 1014.31 1015.34 1015.62 1016.30 1018.07 1019.97 1020.36 1020.50 1020.17
1012.09 1011.76 1011.39 1011.11 1010.96 1010.20 1010.11 1009.89 1009.50 1008.82 1008.82 1008.78 1008.46 1008.17 1007.83 1008.17 1008.54 1009.24 1009.85 1010.36 1010.76 1011.13 1011.74 1012.55 1013.75 1014.68 1015.28 1015.44 1018.28 1019.17 1020.33 1020.61
1012.49 1012.20 1011.66 1011.39 1011.25 1010.91 1010.49 1010.11 1010.01 1009.48 1009.13 1008.58 1009.21 1009.18 1008.69 1007.82 1008.13 1008.50 1008.77 1009.22 1009.66 1009.67 1010.48 1010.77 1012.03 1013.24 1013.84 1015.10 1014.86 1016.13 1018.63 1020.58
1012.82 1012.48 1011.97 1011.75 1011.62 1011.32 1010.88 1010.63 1010.26 1009.86 1009.43 1008.84 1008.05 1008.89 1009.15 1007.88 1009.01 1008.73 1007.91 1008.55 1008.68 1007.28 1009.04 1009.72 1010.25 1011.58 1012.47 1014.03 1014.92 1015.85 1016.09 1018.47
1012.77 1012.21 1011.80 1011.76 1011.42 1011.22 1010.67 1010.17 1009.93 1009.63 1009.25 1009.14 1009.24 1008.57 1008.11 1009.02 1008.74 1008.81 1009.98 1007.37 1008.69 1007.65 1008.45 1008.63 1009.08 1010.09 1011.47 1012.28 1013.25 1013.68 1015.01 1016.20
1012.92 1012.53 1012.07 1011.83 1011.55 1011.12 1010.63 1010.11 1009.43 1008.93 1008.85 1008.96 1008.69 1008.36 1008.44 1008.31 1008.64 1008.41 1009.25 1008.01 1008.56 1008.87 1008.05 1008.26 1008.41 1009.01 1010.08 1010.86 1011.75 1012.21 1013.19 1014.73
1012.89 1012.47 1011.93 1011.57 1011.15 1010.54 1010.21 1009.78 1009.08 1008.84 1008.38 1008.33 1008.46 1008.25 1007.82 1007.98 1008.13 1008.12 1007.57 1007.30 1008.14 1008.27 1008.74 1008.74 1007.47 1008.44 1009.02 1009.96 1010.84 1011.59 1012.62 1013.42
Wind_Speed
11 14 14 8 8 8 10 12 12 12 11 13 15 15 16 18 17 16 16 15 15 15 15 15 15 15 14 12 10 10 9 8
12 13 14 14 14 7 7 10 12 12 12 13 13 13 15 17 16 14 14 13 14 15 15 14 15 14 15 13 9 6 10 10
12 14 14 14 14 13 11 10 10 10 11 11 12 14 16 16 16 14 13 12 11 12 13 13 13 13 14 14 12 9 8 7
14 14 15 14 11 13 14 14 13 14 15 16 14 15 13 14 15 15 14 12 9 12 15 14 15 11 10 14 11 8 9 7
11 11 12 13 12 8 6 6 7 11 17 16 16 13 10 11 8 10 12 11 10 11 12 11 15 11 12 12 11 9 7 6
11 12 12 13 10 10 8 8 8 8 14 17 12 8 12 10 10 14 12 11 11 11 9 13 11 13 15 14 10 11 7 6
11 12 13 13 14 12 11 10 11 11 10 12 12 12 10 9 9 9 11 9 10 10 9 10 10 7 9 9 12 13 11 7
12 14 14 14 15 16 11 10 11 10 10 11 14 10 9 10 9 8 7 8 9 9 6 7 5 5 5 7 11 11 12 11
13 17 15 14 16 14 13 12 10 9 10 12 15 13 12 11 9 9 8 7 12 9 7 5 5 4 5 4 6 9 11 11
12 10 14 13 11 12 10 11 8 9 9 11 15 13 15 13 10 8 8 8 9 9 5 4 5 7 4 4 2 4 7 10
16 13 11 10 7 7 8 8 7 8 8 9 13 15 16 13 10 8 12 9 10 12 12 15 9 9 7 6 3 2 2 7
16 14 15 12 7 5 4 6 5 6 7 8 9 11 13 14 10 11 13 12 10 9 12 13 12 11 8 7 2 4 5 4
18 16 16 13 8 4 4 4 6 8 8 10 10 11 13 12 9 11 12 13 14 15 12 16 11 14 9 6 3 3 1 6
17 17 17 13 9 6 3 2 3 4 6 3 11 11 10 9 9 11 14 11 13 15 16 10 4 14 8 10 4 0 1 1
16 16 16 13 16 8 5 2 2 3 5 6 6 6 8 11 12 11 13 12 13 17 17 20 11 13 14 8 5 4 3 1
14 14 14 12 14 12 14 8 8 3 1 2 5 6 7 5 9 13 14 13 15 17 15 15 13 14 8 3 7 6 7 3
14 15 15 14 14 13 10 12 9 6 5 4 3 4 8 5 7 6 9 9 14 18 18 18 13 15 12 10 5 4 6 4
12 14 15 15 14 14 13 10 9 9 7 6 6 4 2 7 6 8 13 5 9 13 17 19 15 14 14 14 14 12 11 8
13 16 17 17 17 15 15 15 12 10 8 8 10 5 5 6 6 7 9 6 7 13 11 14 17 16 18 14 14 13 11 10
16 16 17 18 18 17 15 16 10 8 7 5 7 9 8 10 12 13 14 11 9 4 4 9 14 15 20 17 13 13 10 11
Wind_Direction
190 189 195 196 206 189 179 178 179 173 170 170 166 165 165 171 176 180 183 178 166 165 165 166 164 152 148 150 166 201 151 149
198 185 196 206 209 213 203 186 181 178 174 172 164 164 172 178 177 180 183 174 169 170 163 157 158 152 152 151 161 218 147 165
201 201 193 205 208 207 204 200 188 178 175 178 168 191 184 178 194 168 177 171 171 168 160 159 150 152 153 148 165 191 156 186
208 210 207 199 214 216 211 212 213 208 206 199 209 208 191 191 189 167 173 177 171 167 161 154 159 170 170 159 194 182 192 172
229 220 224 210 211 209 203 209 209 213 212 211 208 208 190 197 176 182 194 186 187 183 168 178 191 183 178 189 190 182 193 184
235 228 225 222 221 207 210 203 197 206 218 208 203 203 199 193 191 197 200 186 196 195 189 195 190 192 185 192 189 197 181 176
260 238 224 227 223 227 207 215 204 202 205 212 201 200 197 185 201 200 199 174 191 194 196 198 181 192 189 196 196 204 181 171
283 247 229 232 227 225 219 215 213 202 199 205 208 197 193 194 194 189 187 175 183 186 189 176 162 159 205 216 215 200 188 173
307 294 252 226 241 239 232 229 218 208 204 200 202 199 200 192 191 185 181 172 176 173 147 130 138 163 172 204 228 208 195 181
334 304 277 253 228 246 237 241 225 218 215 204 199 201 199 203 197 183 153 158 151 136 105 95 184 173 177 151 223 227 198 189
2 3 344 311 270 241 250 234 230 216 212 216 208 202 199 196 195 171 158 167 172 173 190 179 186 162 143 117 121 119 268 195
28 24 16 1 342 279 241 234 225 235 219 207 214 210 210 204 193 160 165 168 177 182 168 178 170 156 138 110 4 168 176 192
15 23 31 20 11 6 329 295 229 221 207 194 208 221 202 198 191 166 168 181 182 180 178 172 164 154 125 84 74 73 112 209
15 14 9 13 13 5 8 333 343 341 351 292 198 194 203 192 184 177 175 177 177 180 174 162 145 174 159 155 153 215 244 339
4 1 356 2 355 347 346 304 300 35 7 4 346 310 217 206 194 184 181 183 184 181 178 180 166 184 175 154 153 176 149 142
352 351 350 349 345 344 341 333 328 329 315 136 307 280 296 264 214 196 197 188 188 186 186 181 166 183 186 150 114 130 157 166
345 339 337 340 340 331 330 323 316 312 307 285 265 243 234 348 282 260 220 212 204 184 185 191 177 181 183 177 163 155 150 144
330 328 325 323 321 317 308 295 299 300 297 286 272 300 334 263 255 309 302 235 208 215 193 189 178 182 193 183 190 180 180 166
326 327 323 322 314 309 305 293 274 262 277 291 288 274 242 225 227 249 243 237 259 236 201 211 189 186 187 190 194 203 174 177
325 315 315 316 313 303 301 291 283 281 261 260 275 281 272 239 240 231 219 209 215 222 248 236 207 194 192 194 194 197 175 175